Regional Weather Roundup
Issued by NWS Northern Indiana

Home | Current Version | Previous Version | Graphics & Text | Print | Product List | Glossary On
Versions: 1 2 3 4 5 6 7 8 9 10 11 12 13 14 15 16 17 18 19 20 21 22 23 24 25 26 27 28 29 30 31 32 33 34 35 36 37 38 39 40 41 42 43 44 45 46 47 48 49 50
000
ASUS43 KIWX 022000
RWRIWX

KIWX WEATHER ROUNDUP
NATIONAL WEATHER SERVICE NORTHERN INDIANA
400 PM EDT THU JUL 02 2015

NOTE: "FAIR" INDICATES FEW OR NO CLOUDS BELOW 12,000 FEET WITH NO
SIGNIFICANT WEATHER AND/OR OBSTRUCTIONS TO VISIBILITY.

* THESE STATIONS ARE NOT UNDER NWS QUALITY CONTROL. THEY ALSO MAY NOT
  REPORT WEATHER SUCH AS PRECIPITATION OR FOG.

INZ001>027-022100-
NORTHERN INDIANA

CITY           SKY/WX    TMP DP  RH WIND       PRES   REMARKS
GARY*          PTSUNNY   66  59  77 NE14G25   29.99S
SOUTH BEND     MOSUNNY   75  55  49 E8        29.97S
ELKHART*       PTSUNNY   72  54  53 E9G17     29.97F
GOSHEN         PTSUNNY   72  56  57 NE12      29.96F
ANGOLA*          N/A     73  64  73 E8        29.98S
FORT WAYNE     MOSUNNY   76  57  51 E12       29.95S
PERU/GRISSOM   MOSUNNY   75  64  68 NE14      29.93S

$$
INZ028>050-022100-
CENTRAL INDIANA

CITY           SKY/WX    TMP DP  RH WIND       PRES   REMARKS
LAFAYETTE      PTSUNNY   76  63  64 NE14G20   29.90F
KOKOMO*        MOSUNNY   75  64  69 E13       29.92S
MUNCIE*        MOSUNNY   77  64  64 E14       29.92S
INDIANAPOLIS   PTSUNNY   77  63  61 NE13G18   29.88R

$$
MIZ043>046-050>051-056>058-064>065-071>073-077>080-022100-
SOUTHWEST LOWER MICHIGAN

CITY           SKY/WX    TMP DP  RH WIND       PRES   REMARKS
BATTLE CREEK   MOSUNNY   73  54  51 NE10      29.99F
BENTON HARBOR  SUNNY     75  54  47 E9        29.97F
COLDWATER*     PTSUNNY   71  52  50 E7        29.98F
HILLSDALE*     PTSUNNY   71  54  56 E7        29.99F
HOLLAND        PTSUNNY   71  57  61 NW9       30.00F
GRAND RAPIDS   PTSUNNY   73  53  49 E10       30.00F
KALAMAZOO      MOSUNNY   74  52  46 VRB3      29.99F
STURGIS*       PTSUNNY   72  54  53 E9        29.98S
THREE RIVERS*  FAIR      72  54  52 E9        29.98F

$$
OHZ001>008-015>018-024>025-022100-
NORTHWEST OHIO

CITY           SKY/WX    TMP DP  RH WIND       PRES   REMARKS
DEFIANCE       PTSUNNY   75  55  49 NE7       29.97S
FINDLAY        PTSUNNY   74  57  55 NE13      29.96S
TOLEDO EXPRESS MOSUNNY   73  54  51 NE10      29.98S
TOLEDO METCALF MOSUNNY   71  54  54 E10G16    29.99F
LIMA           PTSUNNY   74  62  66 E10       29.95F

$$
AND FOR LAKE MICHIGAN COASTAL AND OPEN LAKE BUOY OBSERVATIONS

STATION/POSITION TEMP    WIND        PRES    VSBY  WAVE
                 AIR SEA DIR/SP/G                  HT/PER
                 (F)     (DEG/KT/KT) (MB)    (MI)  (FT/S)
CALUMET HARBOR    61     350/ 13/ 19   N/A
MICHIGAN CITY     62     350/ 17/ 18   N/A
BURNS HARBOR      61      10/ 15/ 17 1015.9S
SAINT JOSEPH      63     350/ 10/ 14   N/A
4 MI NW BRIDGMAN  62 63                N/A           3/ 4
MICHIGAN CITY     62 65   20/ 14/ 19   N/A           4/ 4

$$
&&



USA.gov is the U.S. government's official web portal to all federal, state and local government web resources and services.